[[{"header":{"parameterUnit":"m.s-1","parameterCategory":1,"la1":30.2991,"la2":30.254,"lo1":-89.0895,"lo2":-89.0444,"dy":0.0017,"dx":0.0017,"nx":28,"ny":28,"refTime":"2024-06-02T09:00:00:Z","depth":0,"parameterNumber":2,"parameterNumberName":"U-component_of_WINDS"},"data":[0,0,0,0,0,0,0,0,0,0,0,0,0,0,0,0,0,0,0,0,0,0,0,0,0,0,0,0,0,0,0,0,0,0,0,0,0,0,0,0,0,0,0,0,0,0,0,0,0,0,0,0,0,0,0,0,0,0,-0.8949,-0.8949,0,-0.8955,-0.8955,-0.8955,-0.8941,-0.8941,-0.8941,-0.894,-0.8946,-0.8947,-0.8948,0,0,0,0,0,0,0,0,0,0,0,0,0,-0.8928,-0.8928,-0.8949,-0.8949,-0.8949,-0.8955,-0.8955,-0.8955,-0.8941,-0.8941,-0.894,-0.894,-0.8946,-0.8947,-0.8948,0,0,0,0,0,0,0,0,0,0,0,0,0,-0.8936,-0.8929,-0.8949,-0.8943,-0.8943,-0.8955,-0.8955,-0.8955,-0.8942,-0.8941,-0.894,-0.894,-0.8946,-0.8947,-0.8948,-0.8966,0,0,-0.895,-0.8951,0,0,0,0,0,0,0,0,-0.8935,-0.8936,-0.8944,-0.8944,-0.8943,-0.8947,-0.8949,-0.8958,-0.8942,-0.8942,-0.894,-0.8939,-0.8947,-0.8948,-0.895,-0.8966,-0.8966,-0.895,-0.8951,-0.8951,-0.8951,0,0,0,0,0,0,0,-0.8935,-0.8936,-0.8951,-0.8944,-0.8944,-0.8941,-0.8941,-0.8951,-0.8948,-0.8942,-0.8941,-0.8942,-0.8947,-0.8949,-0.895,-0.8966,-0.895,-0.8951,-0.8952,-0.8952,-0.8998,-0.8998,0,0,0,0,0,0,-0.8935,-0.8936,-0.8951,-0.8951,-0.8938,-0.8942,-0.8942,-0.8946,-0.8948,-0.8948,-0.8942,-0.8941,-0.8948,-0.8949,-0.895,-0.8972,-0.8951,-0.8952,-0.8952,-0.8997,-0.8998,-0.8999,0,0,0,0,0,0,-0.8934,-0.8936,-0.8951,-0.8943,-0.8945,-0.8943,-0.8947,-0.8947,-0.8949,-0.8948,-0.8948,-0.8946,-0.8948,-0.8949,-0.8962,-0.8972,-0.8952,-0.8953,-0.8996,-0.8997,-0.8998,-0.9016,0,0,0,0,0,0,-0.8934,-0.8936,-0.8943,-0.8944,-0.8945,-0.8962,-0.8948,-0.8947,-0.8951,-0.8949,-0.8951,-0.8951,-0.8947,-0.8961,-0.8963,-0.8973,-0.8954,-0.8995,-0.8997,-0.8998,-0.9014,-0.9017,-0.902,0,0,0,0,0,-0.8933,-0.8947,-0.8943,-0.8945,-0.8954,-0.8963,-0.8964,-0.8959,-0.8952,-0.8958,-0.8958,-0.8951,-0.8971,-0.8962,-0.8964,-0.8975,-0.8995,-0.8996,-0.8998,-0.9013,-0.9016,-0.902,0,0,0,0,0,0,-0.8948,-0.8947,-0.8943,-0.8958,-0.896,-0.896,-0.8969,-0.8963,-0.8969,-0.8967,-0.8961,-0.8962,-0.8976,-0.8977,-0.8967,-0.8993,-0.8981,-0.8983,-0.8992,-0.8995,-0.8998,-0.8998,-0.8954,0,0,0,0,0,-0.8953,-0.896,-0.8959,-0.8973,-0.8974,-0.8971,-0.8975,-0.8972,-0.8974,-0.8975,-0.8976,-0.8979,-0.8986,-0.8991,-0.8997,-0.9014,-0.9015,-0.9022,-0.9025,-0.9027,-0.9029,-0.9039,-0.9043,-0.9004,-0.9004,-0.9004,0,0,-0.8963,-0.8964,-0.8969,-0.8976,-0.8977,-0.8986,-0.8972,-0.8981,-0.8988,-0.8977,-0.8989,-0.8989,-0.8993,-0.9008,-0.9015,-0.9009,-0.904,-0.9029,-0.9031,-0.9032,-0.9041,-0.9045,-0.9048,-0.9005,-0.9005,-0.9005,0,0,-0.8987,-0.8988,-0.8999,-0.9001,-0.9004,-0.9002,-0.9005,-0.9006,-0.9006,-0.9018,-0.901,-0.9017,-0.9029,-0.9032,-0.9035,-0.906,-0.9054,-0.9062,-0.9077,-0.9086,-0.909,-0.9092,-0.9102,-0.9105,-0.9064,-0.9064,-0.9064,0,-0.9,-0.9011,-0.9006,-0.9015,-0.9019,-0.9009,-0.9021,-0.9024,-0.9028,-0.9031,-0.9024,-0.904,-0.9041,-0.9057,-0.9063,-0.9066,-0.9069,-0.9062,-0.9089,-0.9092,-0.9095,-0.9104,-0.9107,-0.9065,-0.9065,-0.9065,-0.9065,0,-0.9027,-0.9035,-0.9044,-0.9049,-0.9054,-0.9064,-0.9061,-0.9066,-0.9062,-0.9061,-0.9074,-0.9075,-0.9082,-0.9085,-0.9081,-0.9101,-0.9098,-0.909,-0.9079,-0.9099,-0.9108,-0.9111,-0.9066,-0.9066,-0.9066,-0.9065,0,0,-0.906,-0.9062,-0.9066,-0.9068,-0.907,-0.9077,-0.9087,-0.9094,-0.9099,-0.9102,-0.9112,-0.9122,-0.9115,-0.9119,-0.9115,-0.9123,-0.9144,-0.9115,-0.9115,-0.9121,-0.9167,-0.9173,-0.9177,-0.914,-0.914,-0.9141,-0.9167,0,-0.9084,-0.9102,-0.9098,-0.9116,-0.9124,-0.9115,-0.9124,-0.9127,-0.9126,-0.9133,-0.9132,-0.914,-0.913,-0.9132,-0.914,-0.914,-0.9153,-0.9138,-0.9149,-0.9149,-0.9149,-0.9181,-0.9188,-0.9212,-0.917,-0.9171,-0.9171,0,-0.9114,-0.9119,-0.9138,-0.914,-0.9143,-0.9151,-0.9157,-0.9164,-0.9167,-0.9166,-0.917,-0.9164,-0.9175,-0.9163,-0.9179,-0.9168,-0.9172,-0.9173,-0.9174,-0.9175,-0.9162,-0.9185,-0.922,-0.9224,-0.9176,-0.9176,-0.9175,0,-0.9138,-0.9149,-0.9162,-0.9164,-0.9166,-0.9172,-0.9173,-0.9176,-0.918,-0.9185,-0.9188,-0.9195,-0.9198,-0.9204,-0.92,-0.9192,-0.9217,-0.9204,-0.9217,-0.9217,-0.9223,-0.9223,-0.926,-0.9224,-0.9224,-0.9224,-0.9224,0,-0.9165,-0.9178,-0.9173,-0.9181,-0.9194,-0.9189,-0.9203,-0.9203,-0.9205,-0.9213,-0.9206,-0.9214,-0.9209,-0.9216,-0.9214,-0.9227,-0.9229,-0.9229,-0.9228,-0.923,-0.923,-0.9233,-0.9232,-0.9225,-0.9225,-0.9225,-0.9225,0,-0.9194,-0.9191,-0.9205,-0.9206,-0.9206,-0.9216,-0.9217,-0.9225,-0.9223,-0.9234,-0.9236,-0.9234,-0.9243,-0.924,-0.9249,-0.9248,-0.9265,-0.9262,-0.9264,-0.9264,-0.9277,-0.9276,-0.9318,-0.9324,-0.9284,-0.9284,-0.9284,0,-0.9213,-0.9222,-0.9223,-0.9228,-0.923,-0.9238,-0.9242,-0.9238,-0.9243,-0.9247,-0.9254,-0.9262,-0.9269,-0.9283,-0.9283,-0.929,-0.9287,-0.9301,-0.9288,-0.929,-0.9289,-0.9288,-0.929,-0.9304,-0.9305,-0.9305,-0.9306,0,-0.9246,-0.9244,-0.925,-0.9257,-0.9262,-0.9267,-0.9271,-0.9275,-0.9271,-0.9277,-0.9286,-0.929,-0.93,-0.9308,-0.9315,-0.9316,-0.9311,-0.931,-0.9313,-0.9315,-0.9317,-0.9317,-0.9272,-0.9309,-0.9308,-0.9308,-0.9308,-0.9308,-0.927,-0.9278,-0.9281,-0.9289,-0.9291,-0.9295,-0.9303,-0.9302,-0.9309,-0.9317,-0.9313,-0.9324,-0.9327,-0.9335,-0.9338,-0.9346,-0.934,-0.9345,-0.9347,-0.9348,-0.935,-0.9315,-0.9347,-0.9347,-0.9347,-0.9347,-0.9347,0,-0.9304,-0.9305,-0.9312,-0.9318,-0.9324,-0.9318,-0.9322,-0.9328,-0.9337,-0.934,-0.9347,-0.9357,-0.9365,-0.9365,-0.9373,-0.9379,-0.9377,-0.9382,-0.9382,-0.9382,-0.9354,-0.9351,-0.9384,-0.9384,-0.9384,-0.9384,-0.9384,-0.9384,-0.9322,-0.9336,-0.9334,-0.9349,-0.935,-0.936,-0.9363,-0.9367,-0.937,-0.9381,-0.9388,-0.9388,-0.939,-0.9398,-0.9405,-0.9405,-0.9409,-0.9415,-0.9414,-0.9388,-0.9384,-0.9381,-0.9378,-0.9415,-0.9415,-0.9441,-0.9441,-0.9442]},{"header":{"parameterUnit":"m.s-1","parameterCategory":1,"la1":30.2991,"la2":30.254,"lo1":-89.0895,"lo2":-89.0444,"dy":0.0017,"dx":0.0017,"nx":28,"ny":28,"refTime":"2024-06-02T09:00:00:Z","depth":0,"parameterNumber":3,"parameterNumberName":"V-component_of_WINDS"},"data":[0,0,0,0,0,0,0,0,0,0,0,0,0,0,0,0,0,0,0,0,0,0,0,0,0,0,0,0,0,0,0,0,0,0,0,0,0,0,0,0,0,0,0,0,0,0,0,0,0,0,0,0,0,0,0,0,0,0,1.4411,1.4411,0,1.4411,1.4411,1.4411,1.4357,1.4355,1.4354,1.4353,1.4352,1.4353,1.4355,0,0,0,0,0,0,0,0,0,0,0,0,0,1.4365,1.4366,1.4411,1.4411,1.4411,1.4411,1.4411,1.4411,1.4357,1.4355,1.4354,1.4352,1.4352,1.4353,1.4355,0,0,0,0,0,0,0,0,0,0,0,0,0,1.4377,1.4366,1.4411,1.4384,1.4382,1.4411,1.4411,1.4411,1.4357,1.4355,1.4353,1.4351,1.4351,1.4353,1.4355,1.441,0,0,1.4361,1.4362,0,0,0,0,0,0,0,0,1.4376,1.4379,1.4388,1.4386,1.4384,1.4382,1.4394,1.441,1.4358,1.4367,1.4353,1.435,1.4364,1.4365,1.4369,1.441,1.4409,1.4361,1.4362,1.4363,1.4364,0,0,0,0,0,0,0,1.4376,1.4378,1.4411,1.4389,1.4386,1.4372,1.4372,1.4397,1.4377,1.4366,1.4362,1.4363,1.4362,1.4367,1.4369,1.4409,1.4361,1.4363,1.4364,1.4365,1.4494,1.4496,0,0,0,0,0,0,1.4378,1.4378,1.4411,1.4411,1.4375,1.4375,1.4374,1.4384,1.4377,1.4373,1.4364,1.436,1.4365,1.4366,1.4368,1.4431,1.4363,1.4365,1.4366,1.4492,1.4494,1.4497,0,0,0,0,0,0,1.4378,1.4382,1.4411,1.4393,1.4396,1.4378,1.439,1.4386,1.4391,1.4376,1.4372,1.4374,1.4363,1.4366,1.44,1.443,1.4366,1.4368,1.4489,1.4492,1.4496,1.4557,0,0,0,0,0,0,1.4377,1.4382,1.4403,1.4394,1.4397,1.4442,1.4392,1.4387,1.4394,1.4389,1.4383,1.438,1.4362,1.4397,1.4402,1.4432,1.4369,1.4486,1.4491,1.4494,1.4552,1.4562,1.4571,0,0,0,0,0,1.4375,1.442,1.4404,1.4408,1.4423,1.4444,1.4446,1.4424,1.4397,1.4417,1.4408,1.438,1.4426,1.4401,1.4406,1.4437,1.4484,1.4489,1.4494,1.4548,1.456,1.4571,0,0,0,0,0,0,1.4432,1.4418,1.44,1.4444,1.4446,1.4435,1.446,1.4438,1.4447,1.4441,1.4414,1.4413,1.4451,1.4447,1.4419,1.4489,1.445,1.4457,1.449,1.4501,1.451,1.451,1.4371,0,0,0,0,0,1.445,1.4469,1.4456,1.4495,1.4497,1.4479,1.4487,1.447,1.4471,1.4472,1.4464,1.4466,1.448,1.4491,1.4503,1.4552,1.4549,1.4576,1.4585,1.4593,1.4598,1.4623,1.4634,1.4513,1.4513,1.4513,0,0,1.4487,1.4481,1.4495,1.4507,1.4506,1.4526,1.448,1.4503,1.4517,1.4475,1.4506,1.4501,1.4501,1.4542,1.456,1.454,1.4631,1.4599,1.4605,1.4606,1.4629,1.464,1.4651,1.4517,1.4516,1.4516,0,0,1.4563,1.4562,1.4594,1.4595,1.4594,1.4582,1.459,1.4583,1.4577,1.4608,1.4577,1.4594,1.462,1.4621,1.4625,1.4702,1.4677,1.4707,1.4755,1.478,1.4789,1.4797,1.4824,1.4834,1.4713,1.4713,1.4713,0,1.4609,1.4638,1.4614,1.4639,1.4645,1.4608,1.464,1.4642,1.4646,1.4651,1.4629,1.466,1.4658,1.4698,1.4717,1.4722,1.473,1.4707,1.479,1.4798,1.4805,1.483,1.4841,1.4717,1.4716,1.4716,1.4716,0,1.4693,1.4714,1.474,1.4745,1.4754,1.4783,1.4763,1.4775,1.4757,1.4747,1.4779,1.4775,1.4786,1.4794,1.4777,1.4832,1.482,1.4795,1.4755,1.4821,1.4844,1.4854,1.4722,1.4721,1.472,1.4719,0,0,1.4806,1.4797,1.4807,1.4808,1.4805,1.482,1.4848,1.4858,1.4869,1.4873,1.4894,1.4917,1.4894,1.4898,1.4881,1.4903,1.4963,1.4874,1.4874,1.489,1.5023,1.5042,1.5054,1.4947,1.4949,1.495,1.5023,0,1.4879,1.4925,1.4904,1.4952,1.497,1.4935,1.4959,1.496,1.4951,1.4965,1.4955,1.4972,1.4939,1.4942,1.4962,1.4952,1.499,1.4946,1.4967,1.4968,1.4967,1.5066,1.5086,1.5155,1.5032,1.5034,1.5035,0,1.4971,1.4979,1.5029,1.5022,1.5029,1.505,1.5058,1.5073,1.5072,1.5064,1.507,1.5048,1.5074,1.5035,1.507,1.5041,1.5048,1.5045,1.5047,1.5047,1.5005,1.5069,1.5176,1.5186,1.5049,1.5048,1.5047,0,1.5047,1.507,1.5103,1.5105,1.5098,1.5114,1.5112,1.511,1.5118,1.5125,1.5129,1.514,1.5145,1.5153,1.5134,1.5108,1.5172,1.5132,1.5166,1.5166,1.518,1.5179,1.529,1.5186,1.5186,1.5186,1.5185,0,1.5131,1.5163,1.5137,1.5157,1.5191,1.5167,1.5201,1.5195,1.5194,1.5212,1.5183,1.52,1.5174,1.5189,1.5175,1.5206,1.5209,1.5203,1.5198,1.5205,1.5206,1.5209,1.5203,1.5188,1.5188,1.5187,1.5187,0,1.5222,1.5206,1.5238,1.5229,1.5228,1.5253,1.5245,1.5263,1.5253,1.5276,1.528,1.5263,1.5279,1.5261,1.5276,1.5267,1.5308,1.5297,1.5308,1.5305,1.5339,1.5336,1.5455,1.5469,1.5357,1.5358,1.5359,0,1.5276,1.53,1.5293,1.5303,1.5302,1.5319,1.5327,1.5304,1.5313,1.5315,1.5333,1.5346,1.5356,1.5383,1.5372,1.5383,1.5372,1.5413,1.5373,1.5379,1.5372,1.537,1.5372,1.5421,1.5422,1.5423,1.5424,0,1.5374,1.5365,1.5377,1.5387,1.5397,1.5403,1.5407,1.5417,1.5393,1.5405,1.5421,1.5429,1.5444,1.5458,1.5466,1.5463,1.544,1.5437,1.5445,1.5452,1.5457,1.5454,1.5329,1.5434,1.5433,1.5432,1.5432,1.5431,1.5447,1.5466,1.5465,1.5479,1.548,1.5484,1.5501,1.5492,1.5505,1.5516,1.5501,1.5521,1.552,1.5529,1.5529,1.5544,1.5527,1.5539,1.5542,1.5545,1.555,1.5455,1.5546,1.5545,1.5545,1.5545,1.5545,0,1.5543,1.554,1.5554,1.5561,1.5572,1.5549,1.5553,1.5564,1.5582,1.5583,1.5593,1.5611,1.5624,1.5615,1.5626,1.564,1.5629,1.5643,1.5642,1.5642,1.5565,1.5557,1.5652,1.5652,1.5652,1.5652,1.5652,1.5652,1.5594,1.5625,1.5616,1.5646,1.5643,1.5662,1.5666,1.567,1.5671,1.5693,1.5704,1.5697,1.5694,1.5705,1.5716,1.5713,1.5718,1.5736,1.5729,1.5658,1.5647,1.5637,1.5629,1.5737,1.5737,1.5804,1.5804,1.5805]}]]